Вернуться в каталог

COSMOS 2613

АктивенВоенныеSSO
NORAD 68763·PAYLOAD·🇷🇺 Russia

Запущен Apr 16, 2026 с Plesetsk Cosmodrome

Loading…

Ближайшие Пролёты (ближайшие 24 часа)

TLE

СвежийSource: Space-Track

Эпоха: Sep 14, 2026, 22:17 UTC

1 68763U 26083J   26257.92886438  .00002089  00000-0  14837-3 0  9994
2 68763  97.7938  36.8446 0008466  56.6769 303.5267 15.05828423 22715

Отслеживайте COSMOS 2613 в реальном времени с AllMySat

Download on the App Store